Tracking 33200 objects as of 18-Feb-2026
HD Live streaming from Space Station
objects crossing your sky now

PRSC-S1

Track PRSC-S1 now!
10-day predictions


NORAD ID: 65055
Int'l Code: 2025-164A
Perigee: 543.9 km
Apogee: 551.3 km
Inclination: 41.1 °
Period: 95.5 minutes
Semi major axis: 6918 km
RCS: Unknown
Launch date: July 31, 2025
Source: People's Republic of China (PRC)
Launch site: Xichang Space Center, China (XSC)
Your satellite tracking list
Your tracking list is empty




NASA's NSSDC Master Catalog

Two Line Element Set (TLE):
1 65055U 25164A   26048.61632038  .00005748  00000-0  37198-3 0  9993
2 65055  41.1283 242.3575 0005332 234.9784 125.0530 15.08610948 30382
Source of the keplerian elements: AFSPC